GEFSSE_500_meanwind_096.txt.gz
Wind_Speed
17 16 16 15 14 13 12 11 10 9 9 8 7 6 6 5 4 3 2 2 2 2 3 4 5 6 6 7 7 8 9 10 11 12 12 13 14 14 15 15 15 15 16
18 18 17 16 15 13 12 11 10 10 9 8 8 7 6 5 4 3 2 2 2 3 4 5 5 6 7 7 8 8 9 10 11 12 13 14 14 14 15 15 15 15 16
20 19 18 17 15 14 13 12 11 10 9 9 8 7 7 6 5 4 3 3 3 4 4 5 5 6 7 7 8 9 10 10 11 12 13 14 14 15 15 15 15 15 15
21 20 18 17 16 14 13 12 11 11 10 9 9 8 7 6 5 4 3 3 3 4 5 5 6 6 7 8 9 9 10 10 11 12 13 14 15 15 15 16 15 15 15
23 21 19 18 16 15 14 13 12 11 11 10 9 8 7 6 5 4 4 4 4 5 5 6 6 7 7 8 9 10 10 11 12 13 14 14 15 16 16 16 16 16 16
24 23 21 19 17 16 15 13 12 12 11 10 9 9 8 7 6 5 4 4 4 5 5 6 7 7 8 9 10 10 11 12 12 13 14 15 15 16 17 17 17 17 17
26 24 22 20 19 18 16 15 13 12 12 11 10 9 8 7 6 6 5 5 5 6 6 7 7 8 9 10 11 11 12 13 13 14 15 16 16 17 17 18 18 18 18
27 26 24 22 20 19 17 16 15 13 12 11 11 10 9 8 7 7 6 6 6 7 7 8 8 9 10 11 11 12 13 14 14 15 16 17 18 18 19 19 19 19 20
29 27 25 24 22 20 19 17 16 15 14 12 11 11 10 9 8 8 7 7 7 7 8 9 9 10 11 12 13 13 14 15 16 16 17 18 19 20 20 21 21 21 21
30 28 26 25 23 22 20 19 17 16 15 14 13 12 11 10 9 9 8 8 8 9 9 10 11 11 12 13 14 15 16 16 17 18 19 20 21 21 22 22 23 23 23
31 30 28 26 24 23 22 21 19 18 16 15 14 13 12 11 11 11 10 10 10 11 11 12 12 13 14 15 15 16 17 18 19 19 20 21 22 23 23 24 24 25 25
33 31 29 27 26 24 23 22 21 19 18 17 16 15 14 14 13 13 13 12 12 12 13 13 14 15 15 16 17 18 19 20 20 21 22 23 24 25 26 26 26 27 27
36 34 32 29 27 26 25 24 23 21 20 19 18 17 17 16 16 15 15 15 14 14 15 15 16 16 17 18 19 19 20 21 22 23 24 25 26 26 27 28 28 29 29
38 36 34 32 30 28 27 26 25 24 23 22 21 20 19 18 18 18 17 17 17 17 17 17 18 19 19 20 21 21 22 23 24 25 26 27 28 28 29 29 30 31 31
40 38 36 34 32 30 29 28 28 27 26 24 23 22 22 21 21 20 20 20 20 19 19 20 20 21 21 22 23 23 24 25 26 27 28 28 29 30 31 32 32 32 33
42 40 38 36 34 33 32 31 31 30 28 27 26 25 25 24 24 23 23 23 22 22 22 22 22 23 23 24 25 25 26 27 28 28 29 30 31 32 33 33 34 34 34
44 43 41 39 37 36 35 34 34 33 32 31 30 29 28 28 27 27 26 26 25 25 25 25 25 25 26 26 27 27 28 28 29 30 31 32 33 34 34 35 35 35 35
45 44 43 42 40 39 38 37 37 36 35 34 33 33 32 31 30 30 29 29 28 27 27 28 28 28 28 28 29 29 29 30 31 31 32 34 35 35 36 36 37 37 37
47 45 44 43 43 42 40 40 40 39 39 38 37 36 35 35 34 33 33 32 31 30 30 30 30 30 30 31 31 31 31 32 32 33 34 35 36 37 37 38 38 38 38
48 47 46 45 44 44 44 43 42 42 42 41 40 40 39 38 38 37 36 36 35 34 34 33 33 33 33 33 33 33 33 34 34 35 36 37 38 39 39 39 39 39 39
49 47 46 46 46 46 46 45 44 44 44 44 44 44 43 42 41 40 39 39 38 37 37 36 36 36 36 36 36 36 35 35 36 37 38 39 40 40 40 41 41 41 41
49 48 48 47 46 47 47 47 46 46 47 47 46 46 45 45 45 44 42 41 41 40 40 39 39 39 38 39 39 39 37 37 37 39 40 41 41 42 42 43 43 43 43
50 50 49 49 48 49 49 49 48 48 49 49 48 48 47 47 46 45 44 44 44 43 42 42 41 41 41 41 41 41 41 40 40 39 40 41 42 43 44 44 44 44 43
51 51 51 51 50 50 50 50 50 50 50 50 49 49 49 49 48 47 47 47 46 46 45 44 44 43 43 43 43 43 43 43 43 42 41 41 42 43 44 44 44 44 43
53 53 52 52 52 51 50 51 50 51 51 51 51 50 50 50 51 50 49 48 48 47 47 47 46 46 45 45 45 44 44 44 44 45 44 44 44 44 45 44 44 43 43
53 53 53 52 52 52 52 51 51 52 52 52 53 52 52 52 51 51 52 51 50 50 49 48 48 48 47 47 46 46 46 46 46 46 46 46 46 45 45 45 44 44 44

GEFSSE_500_meanwind_102.txt.gz
Wind_Speed
19 18 16 16 15 15 14 13 13 12 10 9 8 7 7 6 5 4 4 3 2 1 1 2 2 3 4 5 6 6 7 8 9 10 11 12 13 14 14 15 15 15 16
20 19 17 16 15 15 15 14 13 12 10 9 8 8 7 6 6 5 4 3 2 2 1 2 2 3 4 5 5 6 7 8 9 10 11 12 12 13 14 15 15 15 16
21 20 19 17 16 15 15 14 13 12 11 10 9 8 8 7 6 6 5 4 3 2 2 1 2 3 3 4 5 6 7 8 8 9 10 11 12 13 14 15 15 16 16
22 21 20 18 17 16 15 15 14 13 12 11 10 9 9 8 7 6 6 5 4 3 2 2 2 2 3 4 5 5 6 7 8 9 10 11 12 13 14 15 15 16 16
24 22 20 19 18 17 16 15 14 14 13 11 11 10 10 9 8 7 6 5 4 4 3 2 2 2 2 3 4 5 6 7 8 9 11 12 13 13 14 15 16 16 17
25 23 22 20 19 18 16 15 15 14 13 12 11 11 10 9 8 8 7 6 5 4 3 2 2 2 3 4 5 5 6 7 8 9 10 12 13 14 15 16 16 17 18
27 25 23 21 20 19 17 16 15 14 14 13 12 12 11 10 9 8 7 6 5 5 4 3 3 3 3 4 5 6 7 8 9 10 11 12 13 14 16 16 17 18 18
28 26 24 23 21 20 18 17 16 15 14 14 13 13 12 11 10 9 8 7 6 5 5 4 4 4 5 5 6 7 8 9 10 11 12 13 14 15 16 17 18 19 20
29 27 26 24 23 21 20 19 18 16 15 15 14 13 12 11 11 10 9 8 7 6 6 5 5 5 6 6 7 8 9 10 11 12 13 14 15 16 17 18 19 21 21
31 29 27 26 24 23 21 20 19 18 17 16 15 14 13 12 12 11 10 9 8 7 7 7 6 7 7 8 9 9 10 11 12 13 14 15 16 18 19 20 21 22 23
32 30 29 28 26 25 23 22 21 20 19 18 17 16 15 14 13 12 11 10 9 9 8 8 8 9 9 10 10 11 12 13 14 15 16 17 18 19 20 21 22 23 24
34 32 31 29 28 26 25 24 23 21 20 19 18 17 16 15 14 13 13 12 11 11 11 10 10 11 11 12 12 13 14 15 16 17 18 19 20 21 22 23 23 24 25
36 34 32 31 30 28 27 26 25 23 22 21 20 19 18 17 16 15 14 14 13 13 13 13 13 13 13 14 14 15 16 17 18 19 20 21 22 23 24 24 25 26 27
38 36 34 32 31 30 29 27 26 25 24 23 22 21 20 19 18 17 17 16 16 16 15 15 15 16 16 16 17 18 18 19 20 21 22 23 24 25 26 26 27 28 28
40 38 36 34 33 31 30 29 28 27 26 25 24 23 22 21 20 20 19 19 18 18 18 18 18 18 19 19 20 20 21 22 23 24 24 25 26 27 28 28 29 29 30
42 40 38 36 35 33 31 30 29 28 28 27 26 25 25 24 23 22 22 21 21 21 21 21 21 21 22 22 23 23 24 25 25 26 27 27 28 29 30 30 31 31 32
44 42 40 39 37 35 33 32 30 30 29 28 28 27 27 26 25 25 24 24 24 24 24 24 24 24 25 25 25 26 26 27 28 28 29 30 30 31 32 32 33 33 34
46 44 42 40 39 37 35 34 33 32 31 30 30 30 29 29 28 27 27 27 27 27 27 27 27 27 28 28 28 28 29 30 30 31 32 32 33 33 34 34 35 35 35
47 46 44 42 41 39 38 37 36 35 34 33 33 32 32 31 31 30 30 30 30 29 30 30 31 31 31 31 31 31 32 32 33 33 34 35 35 36 36 36 37 37 37
49 48 46 45 43 42 41 40 39 38 37 36 36 35 34 34 34 34 33 34 34 33 33 33 33 34 34 34 34 34 35 35 35 36 37 37 38 38 38 38 39 39 40
50 49 48 47 45 44 43 42 41 40 39 39 38 37 37 37 37 37 36 37 37 37 37 38 37 37 37 37 37 37 37 38 38 38 39 39 40 40 41 40 41 41 41
51 50 49 48 46 45 45 45 44 43 41 41 40 40 40 40 39 40 40 40 40 40 40 41 41 40 40 41 41 41 40 40 40 41 41 41 42 42 42 43 43 44 44
51 50 49 48 48 47 46 45 45 45 44 43 42 42 41 42 42 43 43 43 43 43 43 44 44 44 43 43 44 44 44 43 43 42 42 42 43 43 44 45 45 45 45
52 51 50 49 49 48 47 46 46 46 45 44 44 44 44 44 44 45 45 46 47 47 47 47 47 46 46 46 46 46 47 47 46 45 44 44 45 45 45 45 45 46 45
53 53 51 51 50 49 48 47 47 46 46 46 46 46 46 46 46 46 47 48 49 50 49 49 49 49 49 48 48 48 49 49 49 50 48 47 47 46 46 46 46 46 45
52 52 53 52 51 50 50 49 49 48 48 48 48 48 48 48 48 49 49 50 51 51 51 50 50 50 50 51 51 51 51 50 50 50 50 49 48 48 47 47 47 46 45

GEFSSE_500_meanwind_108.txt.gz
Wind_Speed
21 19 18 17 15 14 13 12 11 11 11 10 9 9 8 8 7 7 6 6 5 4 3 3 2 1 0 1 1 2 2 3 4 5 6 7 8 8 9 10 11 11 12
23 21 19 18 17 16 15 14 13 12 11 11 10 10 10 9 8 8 7 7 6 5 4 4 3 2 1 1 1 1 1 2 3 4 5 6 7 7 8 9 10 11 12
24 23 20 19 17 17 16 15 14 13 12 12 11 11 11 10 9 9 8 8 7 6 6 5 4 3 2 2 1 1 0 1 2 3 4 5 6 7 8 9 10 11 12
26 24 22 20 18 17 16 16 15 14 14 13 12 12 11 11 10 9 9 9 8 7 7 6 5 4 3 3 2 2 1 0 1 2 4 5 6 7 8 9 10 12 13
27 25 23 21 19 18 17 16 16 15 15 14 13 13 12 12 11 10 10 9 9 8 7 6 6 5 4 4 3 3 2 2 2 3 4 5 6 7 9 10 11 12 13
28 26 24 22 21 19 18 17 17 16 15 15 14 13 13 13 12 11 11 10 9 9 8 7 6 6 5 5 4 4 3 3 3 4 5 6 7 8 9 11 12 13 14
29 27 25 24 22 21 19 18 18 17 16 16 15 14 14 13 13 12 12 11 10 9 9 8 7 7 6 6 5 5 5 4 5 5 6 7 8 9 10 11 13 14 15
31 29 27 25 23 22 21 20 19 18 17 17 16 15 15 14 14 13 12 11 11 10 9 8 8 8 7 7 7 6 6 6 6 7 7 8 9 10 11 13 14 15 16
33 30 28 26 25 23 22 21 20 19 18 18 17 16 16 16 15 14 13 13 12 11 10 9 9 8 8 8 8 7 7 8 8 8 9 9 10 11 12 14 15 16 17
34 31 29 27 26 25 23 22 21 20 19 18 18 17 17 16 16 15 15 14 13 12 11 11 10 9 9 9 9 9 9 9 9 10 10 11 11 13 14 15 16 17 18
35 32 30 29 27 26 25 23 22 21 20 19 19 18 18 17 17 16 16 15 14 13 13 12 11 10 10 10 10 10 10 11 11 11 12 12 13 14 15 16 17 19 20
36 33 31 30 28 27 26 25 24 22 22 21 20 20 19 18 18 17 17 16 15 15 14 13 13 12 12 12 12 12 13 13 13 14 14 15 16 17 17 18 19 20 21
37 35 33 32 30 28 27 26 25 24 23 22 22 21 20 20 19 19 18 18 17 16 15 15 15 14 14 14 14 14 15 15 16 16 17 17 18 19 20 20 21 22 23
38 36 35 33 31 30 29 28 27 26 25 24 24 23 22 21 21 20 20 19 19 18 17 17 17 17 16 16 17 17 17 18 18 19 19 20 21 21 22 23 24 25 26
40 38 37 35 33 31 30 30 29 28 27 26 25 25 24 23 22 22 22 21 21 20 20 19 19 19 19 19 19 19 20 21 21 22 22 23 24 24 25 25 26 27 28
43 40 38 36 34 33 32 31 30 29 28 27 27 26 25 25 24 24 23 23 23 23 22 22 21 21 21 21 21 22 22 23 24 24 25 26 26 27 27 28 29 30 30
44 42 40 37 36 35 34 34 32 30 29 29 29 28 27 26 26 26 26 26 25 25 25 24 24 24 23 23 24 24 25 25 26 27 27 28 28 29 30 31 32 32 32
46 44 42 40 39 38 36 36 34 33 31 31 31 30 29 28 28 28 28 28 27 27 27 27 26 26 26 26 26 26 27 28 28 29 30 30 31 32 33 34 34 35 35
47 45 45 42 41 40 39 38 37 35 34 33 32 31 31 30 29 29 29 29 29 29 29 29 29 28 28 28 29 29 30 30 31 32 32 33 34 34 35 36 36 37 37
47 45 46 45 42 42 41 40 38 37 36 34 34 33 33 32 31 31 31 31 31 31 31 31 31 31 31 31 31 31 32 33 34 34 35 36 36 37 38 38 38 38 39
47 46 44 45 44 43 42 41 40 39 38 37 36 35 35 34 33 33 34 34 33 33 32 32 33 34 34 34 35 35 36 37 37 38 38 39 39 40 39 40 40 40 41
46 47 46 45 46 47 46 44 42 41 40 38 38 37 37 36 36 36 36 35 35 35 35 36 36 37 37 37 37 38 38 39 39 40 40 41 42 42 42 42 42 42 43
49 48 47 46 46 46 46 45 44 43 42 41 40 40 39 37 37 38 38 38 38 38 37 37 38 39 40 41 41 42 42 42 42 42 43 43 44 45 45 45 45 45 45
48 49 49 48 48 47 47 47 46 45 44 43 42 42 40 40 39 39 39 39 39 39 39 40 40 40 41 42 43 44 45 46 46 46 45 45 46 46 47 47 47 47 47
49 49 50 50 49 48 48 47 46 45 44 43 43 42 41 41 41 41 41 41 41 41 41 42 42 43 44 44 45 47 48 48 48 48 47 47 47 47 48 49 49 48 48
49 50 50 51 50 49 49 48 47 46 45 44 44 44 43 43 43 43 44 43 43 43 43 44 45 46 47 47 48 48 49 48 48 49 49 48 48 48 49 49 48 49 49

GEFSSE_500_meanwind_114.txt.gz
Wind_Speed
27 25 23 21 19 18 16 15 14 13 12 11 10 9 8 7 6 6 5 5 5 4 4 4 4 3 2 2 2 1 0 1 1 2 2 3 4 5 6 8 9 10 11
29 27 24 23 21 19 17 16 15 14 13 12 11 10 9 8 8 7 7 7 6 5 5 5 5 4 3 3 2 2 1 1 1 1 2 3 4 5 6 7 9 10 11
29 28 26 24 22 21 19 18 16 15 14 13 12 11 10 10 9 9 8 8 7 7 6 6 5 5 4 4 3 3 2 2 2 2 2 3 4 5 6 7 9 10 11
31 29 27 26 24 22 20 19 18 16 15 14 13 12 12 11 10 10 9 9 9 8 7 7 6 6 5 5 5 4 4 3 3 3 4 4 5 6 7 8 9 10 11
33 30 28 27 25 23 22 20 19 18 16 15 14 13 13 12 11 11 10 10 9 9 8 8 7 7 6 6 6 5 5 5 5 5 5 5 6 6 7 8 10 11 12
35 32 30 28 26 24 23 21 20 19 18 16 16 14 13 12 12 11 11 10 10 9 9 9 8 8 7 7 7 7 6 6 6 6 6 6 7 8 8 9 10 11 12
36 34 31 29 27 25 24 23 21 20 19 18 17 15 14 13 13 12 12 11 11 10 10 9 9 8 8 8 8 7 7 7 7 8 8 8 9 9 10 10 11 13 13
37 34 32 30 28 27 25 24 23 21 21 19 18 16 15 14 14 13 13 12 12 11 10 10 9 9 9 8 8 8 8 8 9 9 9 10 10 11 11 12 13 14 15
38 36 33 32 30 28 26 25 24 23 22 20 19 18 17 16 15 14 13 13 12 12 11 11 10 10 9 9 9 9 9 9 10 10 10 11 12 12 13 14 14 16 16
39 37 34 33 31 29 27 26 25 23 22 21 20 19 18 18 17 16 15 14 13 13 12 12 12 11 11 10 10 10 10 11 11 11 12 12 13 14 15 15 16 17 18
40 37 35 34 32 30 28 27 26 24 23 22 21 20 19 18 18 17 16 15 14 14 13 13 13 13 12 12 12 12 12 12 12 13 14 14 15 16 17 17 18 19 20
40 38 36 34 33 31 29 28 27 25 24 23 22 21 20 19 19 18 17 17 16 15 15 15 15 14 14 14 14 14 14 14 14 15 15 16 17 18 18 19 20 21 22
41 38 37 35 34 32 30 29 28 26 25 24 23 22 21 21 20 19 19 18 18 17 17 17 17 16 16 16 16 16 16 16 17 17 17 18 19 20 20 21 22 23 24
42 39 37 37 35 33 32 30 29 28 26 25 24 23 23 22 22 21 20 20 19 19 19 18 18 18 18 18 19 19 19 19 19 20 20 20 21 22 22 23 24 25 26
45 41 38 37 35 35 33 32 30 29 28 27 26 25 24 23 23 23 22 21 21 21 21 20 20 20 20 20 21 21 21 22 22 22 22 23 23 24 25 25 26 27 28
46 44 41 39 38 36 35 33 32 30 29 28 27 27 26 25 25 24 24 23 23 23 22 22 22 22 22 23 23 23 24 24 24 24 24 25 25 26 27 27 28 29 30
46 45 43 41 39 38 36 34 32 31 30 30 29 28 28 27 27 26 26 25 25 25 25 24 24 25 25 25 25 26 26 26 26 26 26 26 27 28 28 30 31 32 32
45 45 44 41 40 39 38 36 34 33 33 32 31 31 30 29 29 28 28 27 27 27 27 27 27 27 27 27 27 27 27 28 28 28 28 29 29 30 31 32 33 34 35
45 44 45 42 40 41 39 36 36 35 35 34 33 33 32 32 31 30 30 29 29 29 30 29 29 29 29 29 29 29 29 29 29 30 30 31 32 33 34 35 36 36 37
46 45 45 45 42 41 40 40 40 39 37 36 36 36 35 34 33 33 32 32 32 32 32 32 31 31 31 31 31 31 31 31 31 32 33 34 35 36 36 37 38 38 38
47 46 46 46 45 43 42 42 42 41 40 39 39 38 37 36 36 35 35 35 35 34 34 34 33 33 33 34 33 33 33 33 34 35 35 36 37 37 38 39 40 40 41
46 45 44 45 45 45 44 45 44 43 43 42 42 41 40 39 39 38 38 38 38 38 37 36 36 35 35 35 35 35 35 35 35 36 36 37 39 39 40 41 42 42 42
45 45 44 44 44 45 44 45 46 46 45 45 45 44 42 42 40 40 40 39 39 39 38 38 37 36 35 35 36 36 36 35 36 37 38 39 40 41 42 43 44 44 44
46 45 45 45 45 46 46 45 46 46 46 45 45 45 44 43 42 41 40 40 39 38 38 38 36 36 37 37 38 38 39 39 39 39 40 41 42 43 44 44 45 45 45
45 45 45 45 45 46 47 46 47 47 46 46 46 46 45 45 44 42 40 39 40 39 38 38 39 39 38 38 39 40 41 41 42 43 42 42 43 44 44 45 45 46 46
44 44 44 45 43 44 45 47 47 48 48 47 46 45 44 43 43 42 42 41 41 40 39 39 40 39 39 39 40 41 42 43 44 45 45 44 44 44 45 46 46 47 47